Location: Rotheul
(50.2849°N, 11.2349°E)
Time: 06:10:24
(UTC+02:00)

ISS - Pass Details

Date: 20 May 2018
Orbit: 402 x 407 km, 51.6° (Epoch: 24 May)

Event Time Altitude Azimuth Distance (km) Brightness Sun altitude
Exits shadow 00:06:19 21° 84° (E) 961 -2.1 -18.3°
Drops below altitude 10° 00:07:36 10° 77° (ENE) 1,459 -1.1 -18.4°
Sets 00:09:42 0° 73° (ENE) 2,320 0.0 -18.5°
